Time,TemperatureF,DewpointF,PressureIn,WindDirection,WindDirectionDegrees,WindSpeedMPH,WindSpeedGustMPH,Humidity,HourlyPrecipIn,Conditions,Clouds,dailyrainin,SoftwareType,DateUTC
2013-05-10 00:01:00,53.0,38.0,-100.00,West,267,3.0,4.0,58,0.00,,,-99.99,,2013-05-10 06:01:00,
2013-05-10 00:12:00,51.0,38.0,-100.00,ESE,123,3.0,4.0,63,0.00,,,-99.99,,2013-05-10 06:12:00,
2013-05-10 00:21:00,51.0,38.0,-100.00,NNW,347,0.0,2.0,61,0.00,,,-99.99,,2013-05-10 06:21:00,
2013-05-10 00:32:00,51.0,38.0,-100.00,NNW,347,0.0,2.0,61,0.00,,,-99.99,,2013-05-10 06:32:00,
2013-05-10 00:41:00,49.0,40.0,-100.00,WNW,299,4.0,5.0,69,0.00,,,-99.99,,2013-05-10 06:41:00,
2013-05-10 00:52:00,48.0,38.0,-100.00,NE,42,2.0,3.0,68,0.00,,,-99.99,,2013-05-10 06:52:00,
2013-05-10 01:01:00,48.0,38.0,-100.00,NE,42,2.0,3.0,68,0.00,,,-99.99,,2013-05-10 07:01:00,
2013-05-10 01:11:00,47.0,38.0,-100.00,WNW,284,1.0,2.0,70,0.00,,,-99.99,,2013-05-10 07:11:00,
2013-05-10 01:22:00,47.0,38.0,-100.00,WNW,284,1.0,2.0,70,0.00,,,-99.99,,2013-05-10 07:22:00,
2013-05-10 01:31:00,46.0,39.0,-100.00,WSW,239,3.0,4.0,75,0.00,,,-99.99,,2013-05-10 07:31:00,
2013-05-10 01:41:00,46.0,39.0,-100.00,WSW,239,3.0,4.0,75,0.00,,,-99.99,,2013-05-10 07:41:00,
2013-05-10 01:52:00,45.0,38.0,-100.00,SSE,161,0.0,0.0,77,0.00,,,-99.99,,2013-05-10 07:52:00,
2013-05-10 02:02:00,45.0,38.0,-100.00,SSE,161,0.0,0.0,77,0.00,,,-99.99,,2013-05-10 08:02:00,
2013-05-10 02:12:00,45.0,38.0,-100.00,SSE,161,0.0,0.0,77,0.00,,,-99.99,,2013-05-10 08:12:00,
2013-05-10 02:21:00,44.0,37.0,-100.00,South,178,2.0,2.0,77,0.00,,,-99.99,,2013-05-10 08:21:00,
2013-05-10 02:32:00,44.0,38.0,-100.00,SE,124,2.0,2.0,78,0.00,,,-99.99,,2013-05-10 08:32:00,
2013-05-10 02:42:00,44.0,38.0,-100.00,SE,124,2.0,2.0,78,0.00,,,-99.99,,2013-05-10 08:42:00,
2013-05-10 02:52:00,45.0,38.0,-100.00,NW,304,3.0,4.0,78,0.00,,,-99.99,,2013-05-10 08:52:00,
2013-05-10 03:01:00,45.0,38.0,-100.00,NW,304,3.0,4.0,78,0.00,,,-99.99,,2013-05-10 09:01:00,
2013-05-10 03:11:00,43.0,38.0,-100.00,SSE,150,1.0,2.0,81,0.00,,,-99.99,,2013-05-10 09:11:00,
2013-05-10 03:21:00,43.0,38.0,-100.00,SSE,150,1.0,2.0,81,0.00,,,-99.99,,2013-05-10 09:21:00,
2013-05-10 03:32:00,48.0,38.0,-100.00,NW,312,2.0,4.0,68,0.00,,,-99.99,,2013-05-10 09:32:00,
2013-05-10 03:42:00,48.0,38.0,-100.00,NW,312,2.0,4.0,68,0.00,,,-99.99,,2013-05-10 09:42:00,
2013-05-10 03:52:00,48.0,38.0,-100.00,NW,312,2.0,4.0,68,0.00,,,-99.99,,2013-05-10 09:52:00,
2013-05-10 04:02:00,48.0,38.0,-100.00,NW,312,2.0,4.0,68,0.00,,,-99.99,,2013-05-10 10:02:00,
2013-05-10 04:12:00,43.0,38.0,-100.00,WSW,244,3.0,3.0,81,0.00,,,-99.99,,2013-05-10 10:12:00,
2013-05-10 04:23:00,43.0,38.0,-100.00,WSW,244,3.0,3.0,81,0.00,,,-99.99,,2013-05-10 10:23:00,
2013-05-10 04:32:00,40.0,36.0,-100.00,ESE,123,3.0,4.0,84,0.00,,,-99.99,,2013-05-10 10:32:00,
2013-05-10 04:41:00,40.0,36.0,-100.00,ESE,123,3.0,4.0,84,0.00,,,-99.99,,2013-05-10 10:41:00,
2013-05-10 04:52:00,41.0,37.0,-100.00,South,184,2.0,3.0,85,0.00,,,-99.99,,2013-05-10 10:52:00,
2013-05-10 05:02:00,41.0,37.0,-100.00,South,184,2.0,3.0,85,0.00,,,-99.99,,2013-05-10 11:02:00,
2013-05-10 05:12:00,40.0,36.0,-100.00,SE,141,2.0,2.0,83,0.00,,,-99.99,,2013-05-10 11:12:00,
2013-05-10 05:21:00,40.0,36.0,-100.00,SE,141,2.0,2.0,83,0.00,,,-99.99,,2013-05-10 11:21:00,
2013-05-10 05:31:00,40.0,36.0,-100.00,SE,141,2.0,2.0,83,0.00,,,-99.99,,2013-05-10 11:31:00,
2013-05-10 05:42:00,41.0,36.0,-100.00,East,93,4.0,5.0,85,0.00,,,-99.99,,2013-05-10 11:42:00,
2013-05-10 05:51:00,40.0,36.0,-100.00,SE,144,0.0,0.0,86,0.00,,,-99.99,,2013-05-10 11:51:00,
2013-05-10 06:01:00,40.0,36.0,-100.00,SE,144,0.0,0.0,86,0.00,,,-99.99,,2013-05-10 12:01:00,
2013-05-10 06:11:00,39.0,35.0,-100.00,WNW,289,0.0,0.0,88,0.00,,,-99.99,,2013-05-10 12:11:00,
2013-05-10 06:21:00,39.0,35.0,-100.00,WNW,289,0.0,0.0,88,0.00,,,-99.99,,2013-05-10 12:21:00,
2013-05-10 06:32:00,39.0,35.0,-100.00,WNW,289,0.0,0.0,88,0.00,,,-99.99,,2013-05-10 12:32:00,
2013-05-10 06:41:00,39.0,36.0,-100.00,North,6,1.0,2.0,87,0.00,,,-99.99,,2013-05-10 12:41:00,
2013-05-10 06:52:00,40.0,36.0,-100.00,NNW,347,0.0,1.0,84,0.00,,,-99.99,,2013-05-10 12:52:00,
2013-05-10 07:01:00,40.0,36.0,-100.00,NNW,347,0.0,1.0,84,0.00,,,-99.99,,2013-05-10 13:01:00,
2013-05-10 07:11:00,39.0,36.0,-100.00,SSE,152,1.0,2.0,89,0.00,,,-99.99,,2013-05-10 13:11:00,
2013-05-10 07:21:00,39.0,36.0,-100.00,SSE,152,1.0,2.0,89,0.00,,,-99.99,,2013-05-10 13:21:00,
2013-05-10 07:31:00,39.0,36.0,-100.00,SSE,152,1.0,2.0,89,0.00,,,-99.99,,2013-05-10 13:31:00,
2013-05-10 07:41:00,41.0,36.0,-100.00,NE,44,1.0,1.0,84,0.00,,,-99.99,,2013-05-10 13:41:00,
2013-05-10 07:52:00,42.0,37.0,-100.00,ESE,116,1.0,2.0,84,0.00,,,-99.99,,2013-05-10 13:52:00,
2013-05-10 08:02:00,42.0,37.0,-100.00,ESE,116,1.0,2.0,84,0.00,,,-99.99,,2013-05-10 14:02:00,
2013-05-10 08:11:00,48.0,39.0,-100.00,North,357,3.0,4.0,73,0.00,,,-99.99,,2013-05-10 14:11:00,
2013-05-10 08:21:00,49.0,39.0,-100.00,North,354,3.0,4.0,67,0.00,,,-99.99,,2013-05-10 14:21:00,
2013-05-10 08:32:00,49.0,39.0,-100.00,North,354,3.0,4.0,67,0.00,,,-99.99,,2013-05-10 14:32:00,
2013-05-10 08:41:00,49.0,39.0,-100.00,North,354,3.0,4.0,67,0.00,,,-99.99,,2013-05-10 14:41:00,
2013-05-10 08:52:00,51.0,40.0,-100.00,NNE,20,2.0,3.0,65,0.00,,,-99.99,,2013-05-10 14:52:00,
2013-05-10 09:01:00,51.0,40.0,-100.00,NNE,20,2.0,3.0,65,0.00,,,-99.99,,2013-05-10 15:01:00,
2013-05-10 09:20:00,-999.0,-99.9,-100.00,NW,308,0.0,1.0,59,0.00,,,-99.99,,2013-05-10 15:20:00,
2013-05-10 09:32:00,55.0,41.0,-100.00,NW,308,0.0,1.0,59,0.00,,,-99.99,,2013-05-10 15:32:00,
2013-05-10 09:42:00,56.0,42.0,-100.00,WSW,254,1.0,2.0,58,0.00,,,-99.99,,2013-05-10 15:42:00,
2013-05-10 09:53:00,56.0,42.0,-100.00,WSW,254,1.0,2.0,58,0.00,,,-99.99,,2013-05-10 15:53:00,
2013-05-10 10:02:00,56.0,42.0,-100.00,WSW,254,1.0,2.0,58,0.00,,,-99.99,,2013-05-10 16:02:00,
2013-05-10 10:12:00,59.0,41.0,-100.00,SSE,157,4.0,6.0,50,0.00,,,-99.99,,2013-05-10 16:12:00,
2013-05-10 10:23:00,59.0,41.0,-100.00,SSE,157,4.0,6.0,50,0.00,,,-99.99,,2013-05-10 16:23:00,
2013-05-10 10:32:00,59.0,41.0,-100.00,SSE,157,4.0,6.0,50,0.00,,,-99.99,,2013-05-10 16:32:00,
2013-05-10 10:42:00,64.0,41.0,-100.00,ENE,62,2.0,3.0,44,0.00,,,-99.99,,2013-05-10 16:42:00,
2013-05-10 11:12:00,65.0,41.0,-100.00,West,278,2.0,4.0,41,0.00,,,-99.99,,2013-05-10 17:12:00,
2013-05-10 11:21:00,66.0,40.0,-100.00,East,95,3.0,5.0,38,0.00,,,-99.99,,2013-05-10 17:21:00,
2013-05-10 11:32:00,66.0,40.0,-100.00,East,95,3.0,5.0,38,0.00,,,-99.99,,2013-05-10 17:32:00,
2013-05-10 11:42:00,68.0,41.0,-100.00,SSE,164,2.0,5.0,37,0.00,,,-99.99,,2013-05-10 17:42:00,
2013-05-10 11:52:00,70.0,39.0,-100.00,North,3,5.0,6.0,32,0.00,,,-99.99,,2013-05-10 17:52:00,
2013-05-10 12:10:00,-999.0,-99.9,-100.00,North,3,5.0,6.0,32,0.00,,,-99.99,,2013-05-10 18:10:00,
2013-05-10 12:43:00,71.0,37.0,-100.00,NNW,342,8.0,11.0,29,0.00,,,-99.99,,2013-05-10 18:43:00,
2013-05-10 12:54:00,72.0,35.0,-100.00,NNE,25,8.0,10.0,26,0.00,,,-99.99,,2013-05-10 18:54:00,
2013-05-10 13:02:00,72.0,35.0,-100.00,NNE,25,8.0,10.0,26,0.00,,,-99.99,,2013-05-10 19:02:00,
2013-05-10 13:11:00,72.0,37.0,-100.00,WNW,296,9.0,14.0,28,0.00,,,-99.99,,2013-05-10 19:11:00,
2013-05-10 13:42:00,72.0,36.0,-100.00,North,353,5.0,10.0,26,0.00,,,-99.99,,2013-05-10 19:42:00,
2013-05-10 13:52:00,71.0,37.0,-100.00,NW,304,8.0,11.0,28,0.00,,,-99.99,,2013-05-10 19:52:00,
2013-05-10 14:01:00,71.0,37.0,-100.00,NW,304,8.0,11.0,28,0.00,,,-99.99,,2013-05-10 20:01:00,
2013-05-10 14:12:00,68.0,36.0,-100.00,NNE,32,16.0,22.0,31,0.00,,,-99.99,,2013-05-10 20:12:00,
2013-05-10 14:21:00,68.0,36.0,-100.00,NNE,32,16.0,22.0,31,0.00,,,-99.99,,2013-05-10 20:21:00,
2013-05-10 14:31:00,68.0,36.0,-100.00,NNE,32,16.0,22.0,31,0.00,,,-99.99,,2013-05-10 20:31:00,
2013-05-10 14:41:00,69.0,32.0,-100.00,NW,323,8.0,11.0,25,0.00,,,-99.99,,2013-05-10 20:41:00,
2013-05-10 14:52:00,71.0,33.0,-100.00,NE,45,3.0,5.0,25,0.00,,,-99.99,,2013-05-10 20:52:00,
2013-05-10 15:01:00,71.0,33.0,-100.00,NE,45,3.0,5.0,25,0.00,,,-99.99,,2013-05-10 21:01:00,
2013-05-10 15:11:00,72.0,37.0,-100.00,NW,304,6.0,7.0,27,0.00,,,-99.99,,2013-05-10 21:11:00,
2013-05-10 15:24:00,71.0,31.0,-100.00,WNW,301,5.0,8.0,22,0.00,,,-99.99,,2013-05-10 21:24:00,
2013-05-10 15:32:00,71.0,31.0,-100.00,WNW,301,5.0,8.0,22,0.00,,,-99.99,,2013-05-10 21:32:00,
2013-05-10 15:42:00,74.0,34.0,-100.00,NW,308,5.0,7.0,23,0.00,,,-99.99,,2013-05-10 21:42:00,
2013-05-10 15:52:00,75.0,29.0,-100.00,NNW,343,12.0,19.0,19,0.00,,,-99.99,,2013-05-10 21:52:00,
2013-05-10 16:02:00,75.0,29.0,-100.00,NNW,343,12.0,19.0,19,0.00,,,-99.99,,2013-05-10 22:02:00,
2013-05-10 16:12:00,75.0,29.0,-100.00,NNW,343,12.0,19.0,19,0.00,,,-99.99,,2013-05-10 22:12:00,
2013-05-10 16:22:00,75.0,28.0,-100.00,NNW,332,15.0,21.0,17,0.00,,,-99.99,,2013-05-10 22:22:00,
2013-05-10 16:32:00,75.0,25.0,-100.00,NNW,332,8.0,13.0,16,0.00,,,-99.99,,2013-05-10 22:32:00,
2013-05-10 16:42:00,75.0,25.0,-100.00,NNW,332,8.0,13.0,16,0.00,,,-99.99,,2013-05-10 22:42:00,
2013-05-10 16:52:00,75.0,25.0,-100.00,NNW,332,8.0,13.0,16,0.00,,,-99.99,,2013-05-10 22:52:00,
2013-05-10 17:02:00,75.0,25.0,-100.00,NNW,332,8.0,13.0,16,0.00,,,-99.99,,2013-05-10 23:02:00,
2013-05-10 17:12:00,75.0,27.0,-100.00,NW,304,10.0,13.0,17,0.00,,,-99.99,,2013-05-10 23:12:00,
2013-05-10 17:22:00,75.0,27.0,-100.00,NW,326,16.0,21.0,17,0.00,,,-99.99,,2013-05-10 23:22:00,
2013-05-10 17:32:00,75.0,27.0,-100.00,NW,326,16.0,21.0,17,0.00,,,-99.99,,2013-05-10 23:32:00,
2013-05-10 17:41:00,75.0,26.0,-100.00,WNW,298,11.0,14.0,16,0.00,,,-99.99,,2013-05-10 23:41:00,
2013-05-10 17:52:00,75.0,26.0,-100.00,WNW,298,11.0,14.0,16,0.00,,,-99.99,,2013-05-10 23:52:00,
2013-05-10 18:01:00,75.0,26.0,-100.00,WNW,298,11.0,14.0,16,0.00,,,-99.99,,2013-05-11 00:01:00,
2013-05-10 18:11:00,75.0,28.0,-100.00,NNW,336,11.0,14.0,18,0.00,,,-99.99,,2013-05-11 00:11:00,
2013-05-10 18:21:00,75.0,30.0,-100.00,NW,319,10.0,13.0,19,0.00,,,-99.99,,2013-05-11 00:21:00,
2013-05-10 18:32:00,75.0,30.0,-100.00,NW,319,10.0,13.0,19,0.00,,,-99.99,,2013-05-11 00:32:00,
2013-05-10 18:42:00,75.0,28.0,-100.00,NW,322,11.0,17.0,17,0.00,,,-99.99,,2013-05-11 00:42:00,
2013-05-10 18:52:00,75.0,28.0,-100.00,NW,322,11.0,17.0,17,0.00,,,-99.99,,2013-05-11 00:52:00,
2013-05-10 19:01:00,75.0,28.0,-100.00,NW,322,11.0,17.0,17,0.00,,,-99.99,,2013-05-11 01:01:00,
2013-05-10 19:11:00,75.0,30.0,-100.00,NW,316,11.0,15.0,19,0.00,,,-99.99,,2013-05-11 01:11:00,
2013-05-10 19:21:00,74.0,29.0,-100.00,NW,322,11.0,14.0,18,0.00,,,-99.99,,2013-05-11 01:21:00,
2013-05-10 19:31:00,74.0,29.0,-100.00,NW,322,11.0,14.0,18,0.00,,,-99.99,,2013-05-11 01:31:00,
2013-05-10 19:42:00,73.0,29.0,-100.00,NW,316,11.0,13.0,19,0.00,,,-99.99,,2013-05-11 01:42:00,
2013-05-10 19:52:00,73.0,29.0,-100.00,NW,316,11.0,13.0,19,0.00,,,-99.99,,2013-05-11 01:52:00,
2013-05-10 20:02:00,73.0,29.0,-100.00,NW,316,11.0,13.0,19,0.00,,,-99.99,,2013-05-11 02:02:00,
2013-05-10 20:11:00,72.0,31.0,-100.00,NW,320,8.0,11.0,21,0.00,,,-99.99,,2013-05-11 02:11:00,
2013-05-10 20:21:00,69.0,31.0,-100.00,NW,320,7.0,9.0,24,0.00,,,-99.99,,2013-05-11 02:21:00,
2013-05-10 20:32:00,69.0,31.0,-100.00,NW,320,7.0,9.0,24,0.00,,,-99.99,,2013-05-11 02:32:00,
2013-05-10 20:42:00,69.0,31.0,-100.00,NW,320,7.0,9.0,24,0.00,,,-99.99,,2013-05-11 02:42:00,
2013-05-10 20:52:00,67.0,30.0,-100.00,NNW,337,6.0,6.0,24,0.00,,,-99.99,,2013-05-11 02:52:00,
2013-05-10 21:01:00,67.0,30.0,-100.00,NNW,337,6.0,6.0,24,0.00,,,-99.99,,2013-05-11 03:01:00,
2013-05-10 21:11:00,65.0,30.0,-100.00,North,6,5.0,6.0,27,0.00,,,-99.99,,2013-05-11 03:11:00,
2013-05-10 21:21:00,64.0,30.0,-100.00,North,11,4.0,5.0,28,0.00,,,-99.99,,2013-05-11 03:21:00,
2013-05-10 21:32:00,64.0,30.0,-100.00,North,11,4.0,5.0,28,0.00,,,-99.99,,2013-05-11 03:32:00,
2013-05-10 21:42:00,64.0,30.0,-100.00,North,11,4.0,5.0,28,0.00,,,-99.99,,2013-05-11 03:42:00,
2013-05-10 21:53:00,63.0,29.0,-100.00,North,353,4.0,5.0,27,0.00,,,-99.99,,2013-05-11 03:53:00,
2013-05-10 22:02:00,63.0,29.0,-100.00,North,353,4.0,5.0,27,0.00,,,-99.99,,2013-05-11 04:02:00,
2013-05-10 22:12:00,61.0,29.0,-100.00,North,1,7.0,9.0,30,0.00,,,-99.99,,2013-05-11 04:12:00,
2013-05-10 22:23:00,61.0,29.0,-100.00,North,1,7.0,9.0,30,0.00,,,-99.99,,2013-05-11 04:23:00,
2013-05-10 22:33:00,61.0,29.0,-100.00,North,1,7.0,9.0,30,0.00,,,-99.99,,2013-05-11 04:33:00,
2013-05-10 22:43:00,60.0,30.0,-100.00,North,8,6.0,8.0,32,0.00,,,-99.99,,2013-05-11 04:43:00,
2013-05-10 22:52:00,58.0,31.0,-100.00,North,7,7.0,8.0,35,0.00,,,-99.99,,2013-05-11 04:52:00,
2013-05-10 23:00:00,58.0,30.0,-100.00,NNW,346,5.0,6.0,34,0.00,,,-99.99,,2013-05-11 05:00:00,
2013-05-10 23:02:00,58.0,31.0,-100.00,North,7,7.0,8.0,35,0.00,,,-99.99,,2013-05-11 05:02:00,
2013-05-10 23:12:00,59.0,29.0,-100.00,North,352,7.0,8.0,32,0.00,,,-99.99,,2013-05-11 05:12:00,
2013-05-10 23:21:00,59.0,29.0,-100.00,North,352,7.0,8.0,32,0.00,,,-99.99,,2013-05-11 05:21:00,
2013-05-10 23:32:00,59.0,29.0,-100.00,North,352,7.0,8.0,32,0.00,,,-99.99,,2013-05-11 05:32:00,
2013-05-10 23:42:00,58.0,30.0,-100.00,NNW,346,5.0,6.0,34,0.00,,,-99.99,,2013-05-11 05:42:00,
2013-05-10 23:52:00,58.0,30.0,-100.00,NNW,346,5.0,6.0,34,0.00,,,-99.99,,2013-05-11 05:52:00,